Torna al catalogo

UNICORN-2S

AttivoMilitareSSO
NORAD 68475·PAYLOAD·🇩🇪 Germany

Lanciato Mar 30, 2026 da Vandenberg Space Force Base

Loading…

Prossimi Passaggi (prossime 24 ore)

TLE

AggiornatoSource: Space-Track

Epoca: Sep 14, 2026, 08:31 UTC

1 68475U 26067BM  26257.35497484  .00007106  00000-0  68260-3 0  9996
2 68475  97.7584 214.1737 0005651 105.8434 254.3409 14.93343134 24502

Traccia UNICORN-2S in tempo reale con AllMySat

Download on the App Store